Location: Newark
(54.2500°N, 9.1833°E)
Time: 16:03:34
(UTC+00:00)

S-56A Canister/Altair - Visible Passes

Search period start: 06 December 2019 00:00
Search period end: 16 December 2019 00:00
Orbit: 633 x 2499 km, 38.9° (Epoch: 06 December)

Date Brightness Start Highest point End Pass type
(mag) Time Alt. Az. Time Alt. Az. Time Alt. Az.
06 Dec 11.2 16:24:06 10° W 16:32:38 21° SW 16:39:29 10° S visible
07 Dec 11.3 15:50:08 10° W 15:59:48 24° SW 16:07:31 10° SSE visible
09 Dec 11.8 16:52:13 10° WSW 16:56:13 12° SW 16:59:53 10° SSW visible
10 Dec 11.8 16:17:12 10° WSW 16:23:30 15° SW 16:29:01 10° SSW visible
11 Dec 11.9 15:42:45 10° W 15:50:41 18° SW 15:57:32 10° S visible
12 Dec 12.4 06:55:35 10° SSE 07:02:19 15° SE 07:09:27 10° ESE visible
13 Dec 12.3 06:24:23 10° SSE 06:29:23 13° SE 06:34:40 10° ESE visible
14 Dec 12.3 05:54:51 10° SE 05:56:32 10° SE 05:58:16 10° ESE visible
15 Dec 12.5 15:38:45 10° WSW 15:41:08 11° SW 15:43:27 10° SW visible
